DW3560 Weather Reports


Display with metric or nautical units.
time (UTC)temp
F
wind
direction
speed
MPH
gust
MPH
rain 1hr
in
rain 24hr
in
rain mn
in
humidity
%
barometer
mb
20260901212024 69 263 3.0 12.0 0.00 0.00 0.00 58 1014.4
20260901211503 68 264 3.0 12.0 0.00 0.00 0.00 59 1014.4
20260901211024 68 261 3.0 10.0 0.00 0.00 0.00 59 1014.4
20260901210503 68 256 3.0 10.0 0.00 0.00 0.00 58 1014.4
20260901210003 68 254 3.0 8.0 0.00 0.00 0.00 58 1014.4
20260901205524 68 257 2.0 7.0 0.00 0.00 0.00 58 1014.4
20260901205003 68 260 3.0 9.0 0.00 0.00 0.00 58 1014.4
20260901204503 68 264 3.0 9.0 0.00 0.00 0.00 58 1014.4
20260901204003 68 295 2.0 5.0 0.00 0.00 0.00 58 1014.4
20260901203503 68 260 2.0 5.0 0.00 0.00 0.00 59 1014.4
20260901203003 67 203 3.0 6.0 0.00 0.00 0.00 59 1014.4
20260901202503 67 235 3.0 10.0 0.00 0.00 0.00 59 1014.4
20260901202003 67 257 3.0 10.0 0.00 0.00 0.00 60 1014.4
20260901201503 67 254 2.0 7.0 0.00 0.00 0.00 59 1014.4
20260901201003 67 234 2.0 7.0 0.00 0.00 0.00 61 1014.4
20260901200503 67 246 3.0 7.0 0.00 0.00 0.00 61 1014.4
20260901200003 67 297 3.0 8.0 0.00 0.00 0.00 61 1014.4
20260901195503 66 295 2.0 8.0 0.00 0.00 0.00 63 1014.4
20260901195003 66 256 2.0 6.0 0.00 0.00 0.00 63 1014.4
20260901194503 65 251 2.0 8.0 0.00 0.00 0.00 63 1014.4
20260901194003 65 248 3.0 11.0 0.00 0.00 0.00 63 1014.4
20260901193503 65 267 2.0 11.0 0.00 0.00 0.00 64 1014.4
20260901193003 64 271 3.0 7.0 0.00 0.00 0.00 64 1014.4
20260901192503 64 248 3.0 8.0 0.00 0.00 0.00 65 1014.4
20260901192024 64 244 4.0 8.0 0.00 0.00 0.00 64 1014.4
20260901191503 64 241 4.0 8.0 0.00 0.00 0.00 65 1014.4
20260901191003 64 244 4.0 9.0 0.00 0.00 0.00 66 1014.4
20260901190503 64 261 3.0 9.0 0.00 0.00 0.00 67 1014.4
20260901190003 64 265 3.0 9.0 0.00 0.00 0.00 68 1014.4
20260901185503 64 253 3.0 9.0 0.00 0.00 0.00 67 1014.4
20260901185003 64 258 2.0 8.0 0.00 0.00 0.00 66 1014.4
20260901184503 64 268 2.0 7.0 0.00 0.00 0.00 67 1014.4
20260901184003 64 249 2.0 9.0 0.00 0.00 0.00 67 1014.4
20260901183503 64 243 3.0 9.0 0.00 0.00 0.00 66 1014.4
20260901183003 64 247 3.0 8.0 0.00 0.00 0.00 66 1014.4
20260901182503 64 245 3.0 8.0 0.00 0.00 0.00 66 1014.4
20260901182003 64 238 3.0 8.0 0.00 0.00 0.00 66 1014.4
20260901181503 64 232 3.0 9.0 0.00 0.00 0.00 66 1014.4
20260901181003 63 240 3.0 9.0 0.00 0.00 0.00 67 1014.4
20260901180503 63 250 3.0 10.0 0.00 0.00 0.00 67 1014.4
20260901180003 63 251 4.0 10.0 0.00 0.00 0.00 66 1014.4
20260901175524 63 244 3.0 9.0 0.00 0.00 0.00 66 1014.4
20260901175003 63 247 3.0 9.0 0.00 0.00 0.00 66 1014.4
20260901174503 63 230 4.0 9.0 0.00 0.00 0.00 66 1014.4
20260901174003 63 221 4.0 9.0 0.00 0.00 0.00 67 1014.4
20260901173524 62 235 3.0 9.0 0.00 0.00 0.00 67 1014.4
20260901173003 62 242 3.0 7.0 0.00 0.00 0.00 68 1014.4
20260901172503 62 249 3.0 7.0 0.00 0.00 0.00 69 1014.4
20260901172003 62 250 3.0 7.0 0.00 0.00 0.00 68 1014.4
20260901171503 62 255 3.0 8.0 0.00 0.00 0.00 67 1014.4
20260901171003 62 286 2.0 8.0 0.00 0.00 0.00 67 1014.4
20260901170524 62 307 2.0 8.0 0.00 0.00 0.00 67 1014.4
20260901170003 62 278 3.0 8.0 0.00 0.00 0.00 68 1014.4
20260901165503 61 259 3.0 7.0 0.00 0.00 0.00 70 1014.4
20260901165004 61 253 3.0 8.0 0.00 0.00 0.00 71 1014.4
20260901164504 61 252 3.0 9.0 0.00 0.00 0.00 71 1014.4
20260901164003 61 237 3.0 9.0 0.00 0.00 0.00 71 1014.4
20260901163503 61 225 4.0 9.0 0.00 0.00 0.00 72 1014.4
20260901163003 61 236 4.0 9.0 0.00 0.00 0.00 73 1014.4
20260901162503 60 240 4.0 9.0 0.00 0.00 0.00 73 1014.4
20260901162003 60 232 3.0 8.0 0.00 0.00 0.00 73 1014.4
20260901161503 60 248 3.0 8.0 0.00 0.00 0.00 73 1014.4
20260901161024 60 246 3.0 8.0 0.00 0.00 0.00 74 1014.4
20260901160503 60 238 3.0 9.0 0.00 0.00 0.00 74 1014.4
20260901160003 60 243 3.0 9.0 0.00 0.00 0.00 75 1014.4
20260901155524 60 244 2.0 5.0 0.00 0.00 0.00 76 1014.4
20260901155003 60 239 2.0 6.0 0.00 0.00 0.00 76 1014.4
20260901154524 59 242 3.0 9.0 0.00 0.00 0.00 76 1014.4
20260901154003 59 250 4.0 9.0 0.00 0.00 0.00 76 1014.4
20260901153503 59 251 3.0 9.0 0.00 0.00 0.00 76 1014.4
20260901153003 59 253 3.0 8.0 0.00 0.00 0.00 77 1014.4
20260901152503 59 248 2.0 8.0 0.00 0.00 0.00 78 1014.4
20260901152003 59 224 2.0 8.0 0.00 0.00 0.00 78 1014.4
20260901151503 59 218 2.0 6.0 0.00 0.00 0.00 79 1014.4
20260901151003 58 240 2.0 7.0 0.00 0.00 0.00 79 1014.4
20260901150503 58 247 1.0 7.0 0.00 0.00 0.00 79 1014.4
20260901150003 58 240 1.0 5.0 0.00 0.00 0.00 79 1014.4
20260901145503 58 230 2.0 7.0 0.00 0.00 0.00 79 1014.4
20260901145003 58 219 2.0 7.0 0.00 0.00 0.00 79 1014.4
20260901144503 58 208 2.0 5.0 0.00 0.00 0.00 79 1014.4
20260901144003 58 196 2.0 5.0 0.00 0.00 0.00 79 1014.4
20260901143503 58 195 3.0 6.0 0.00 0.00 0.00 79 1014.4
20260901143003 58 193 3.0 6.0 0.00 0.00 0.00 79 1014.4
20260901142503 58 186 4.0 6.0 0.00 0.00 0.00 79 1014.4
20260901142003 58 188 3.0 9.0 0.00 0.00 0.00 79 1014.4
20260901141503 57 192 3.0 9.0 0.00 0.00 0.00 79 1014.4
20260901141003 57 191 3.0 8.0 0.00 0.00 0.00 79 1014.4
20260901140503 57 196 3.0 6.0 0.00 0.00 0.00 79 1014.4
20260901140024 57 201 2.0 6.0 0.00 0.00 0.00 80 1014.4
20260901135503 57 191 3.0 7.0 0.00 0.00 0.00 80 1014.4
20260901135003 57 188 4.0 8.0 0.00 0.00 0.00 80 1014.4
20260901134524 57 192 3.0 8.0 0.00 0.00 0.00 80 1014.4
20260901134024 57 193 3.0 6.0 0.00 0.00 0.00 80 1014.4
20260901133525 57 192 2.0 7.0 0.00 0.00 0.00 80 1014.4
20260901133003 57 191 2.0 7.0 0.00 0.00 0.00 80 1014.4
20260901132503 57 193 2.0 6.0 0.00 0.00 0.00 80 1014.4
20260901132003 57 180 2.0 6.0 0.00 0.00 0.00 80 1014.4
20260901131503 57 173 2.0 6.0 0.00 0.00 0.00 80 1014.4
20260901131003 57 189 2.0 7.0 0.00 0.00 0.00 80 1014.4
20260901130503 57 188 2.0 7.0 0.00 0.00 0.00 80 1014.4
20260901130024 57 187 2.0 5.0 0.00 0.00 0.00 80 1014.4
20260901125524 57 186 3.0 7.0 0.00 0.00 0.00 80 1014.4
20260901125003 57 189 2.0 6.0 0.00 0.00 0.00 80 1014.4
20260901124504 57 190 2.0 5.0 0.00 0.00 0.00 80 1014.4
20260901124003 57 196 2.0 7.0 0.00 0.00 0.00 80 1014.4
20260901123503 57 203 2.0 7.0 0.00 0.00 0.00 80 1014.4
20260901123003 57 191 2.0 6.0 0.00 0.00 0.00 80 1014.4
20260901122524 57 185 2.0 7.0 0.00 0.00 0.00 80 1014.4
20260901122003 57 193 2.0 7.0 0.00 0.00 0.00 80 1014.4
20260901121524 57 194 2.0 6.0 0.00 0.00 0.00 80 1014.4
20260901121003 57 189 2.0 5.0 0.00 0.00 0.00 80 1014.4
20260901120503 57 185 2.0 5.0 0.00 0.00 0.00 80 1014.4
20260901120003 57 200 2.0 5.0 0.00 0.00 0.00 80 1014.4
20260901115503 57 203 2.0 5.0 0.00 0.00 0.00 80 1014.4
20260901115024 57 206 2.0 5.0 0.00 0.00 0.00 80 1014.4
20260901114524 57 203 2.0 7.0 0.00 0.00 0.00 80 1014.4
20260901114001 57 200 2.0 7.0 0.00 0.00 0.00 80 1014.4
20260901113502 57 199 2.0 6.0 0.00 0.00 0.00 80 1014.4
20260901113002 57 199 1.0 6.0 0.00 0.00 0.00 80 1014.4
20260901112523 57 206 2.0 6.0 0.00 0.00 0.00 81 1014.4
20260901112002 57 216 3.0 8.0 0.00 0.00 0.00 80 1014.4
20260901111502 57 213 2.0 8.0 0.00 0.00 0.00 81 1014.4
20260901111002 57 215 2.0 6.0 0.00 0.00 0.00 81 1014.4
20260901110501 57 235 2.0 5.0 0.00 0.00 0.00 80 1014.4
20260901110002 57 240 2.0 5.0 0.00 0.00 0.00 80 1014.4
20260901105502 57 240 2.0 6.0 0.00 0.00 0.00 80 1014.4
20260901105001 57 216 2.0 6.0 0.00 0.00 0.00 80 1014.4
20260901104502 57 207 2.0 5.0 0.00 0.00 0.00 80 1014.4
20260901104001 57 203 2.0 5.0 0.00 0.00 0.00 80 1014.4
20260901103501 57 203 1.0 4.0 0.00 0.00 0.00 80 1014.4
20260901103002 57 221 2.0 8.0 0.00 0.00 0.00 80 1014.4
20260901102501 57 230 2.0 8.0 0.00 0.00 0.00 79 1014.4
20260901102002 57 237 1.0 7.0 0.00 0.00 0.00 79 1014.4
20260901101502 57 239 1.0 7.0 0.00 0.00 0.00 79 1014.4
20260901101002 57 241 1.0 3.0 0.00 0.00 0.00 79 1014.4
20260901100502 57 238 1.0 4.0 0.00 0.00 0.00 79 1014.4
20260901100002 57 228 1.0 5.0 0.00 0.00 0.00 79 1014.4
20260901095501 57 201 1.0 5.0 0.00 0.00 0.00 79 1014.4
20260901095004 57 175 1.0 4.0 0.00 0.00 0.00 79 1014.4
20260901094502 57 174 1.0 4.0 0.00 0.00 0.00 79 1014.4
20260901094001 57 184 1.0 6.0 0.00 0.00 0.00 79 1014.4
20260901093502 57 200 1.0 6.0 0.00 0.00 0.00 79 1014.4
20260901093002 57 198 1.0 5.0 0.00 0.00 0.00 79 1014.4
20260901092502 57 194 1.0 5.0 0.00 0.00 0.00 79 1014.4
20260901092023 57 213 1.0 4.0 0.00 0.00 0.00 80 1014.4
20260901091502 57 233 2.0 5.0 0.00 0.00 0.00 80 1014.4
20260901091002 57 247 3.0 6.0 0.00 0.00 0.00 80 1014.4
20260901090502 57 252 3.0 6.0 0.00 0.00 0.00 80 1014.4
20260901090002 57 253 3.0 9.0 0.00 0.00 0.00 80 1014.4
20260901085502 57 259 2.0 9.0 0.00 0.00 0.00 80 1014.4
20260901085002 57 257 2.0 7.0 0.00 0.00 0.00 80 1014.4
20260901084502 57 251 3.0 8.0 0.00 0.00 0.00 80 1014.4
20260901084023 57 249 2.0 8.0 0.00 0.00 0.00 80 1014.4
20260901083502 57 248 2.0 5.0 0.00 0.00 0.00 81 1014.4
20260901083023 57 252 2.0 7.0 0.00 0.00 0.00 81 1014.4
20260901082502 57 250 2.0 7.0 0.00 0.00 0.00 81 1014.4
20260901082001 57 235 2.0 6.0 0.00 0.00 0.00 81 1014.4
20260901081502 57 237 2.0 6.0 0.00 0.00 0.00 81 1014.4
20260901081023 57 243 2.0 5.0 0.00 0.00 0.00 81 1014.4
20260901080502 57 239 2.0 6.0 0.00 0.00 0.00 81 1014.4
20260901080002 57 241 3.0 9.0 0.00 0.00 0.00 81 1014.4
20260901075502 57 244 2.0 9.0 0.00 0.00 0.00 81 1014.4
20260901075002 57 242 2.0 7.0 0.00 0.00 0.00 81 1014.4
20260901074523 57 246 2.0 7.0 0.00 0.00 0.00 81 1014.4
20260901074002 57 243 2.0 8.0 0.00 0.00 0.00 81 1014.4
20260901073502 57 241 2.0 8.0 0.00 0.00 0.00 81 1014.4
20260901073002 57 250 2.0 7.0 0.00 0.00 0.00 81 1014.4
20260901072502 57 258 2.0 7.0 0.00 0.00 0.00 81 1014.4
20260901072002 57 254 2.0 4.0 0.00 0.00 0.00 80 1014.4
20260901071502 57 254 2.0 4.0 0.00 0.00 0.00 80 1014.4
20260901071002 57 252 2.0 7.0 0.00 0.00 0.00 80 1014.4
20260901070523 57 245 2.0 7.0 0.00 0.00 0.00 80 1014.4
20260901070009 57 246 2.0 8.0 0.00 0.00 0.00 80 1014.4
20260901065523 57 243 3.0 8.0 0.00 0.00 0.00 80 1014.4
20260901065002 57 240 3.0 7.0 0.00 0.00 0.00 80 1014.4
20260901064502 57 246 3.0 9.0 0.00 0.00 0.00 80 1014.4
20260901064002 57 247 3.0 9.0 0.00 0.00 0.00 80 1014.4
20260901063502 57 249 4.0 10.0 0.00 0.00 0.00 80 1014.4
20260901063001 57 248 3.0 10.0 0.00 0.00 0.00 80 1014.4
20260901062502 57 245 3.0 8.0 0.00 0.00 0.00 80 1014.4
20260901062002 57 250 3.0 8.0 0.00 0.00 0.00 80 1014.4
20260901061502 57 256 2.0 8.0 0.00 0.00 0.00 80 1014.4
20260901061002 57 259 2.0 8.0 0.00 0.00 0.00 81 1014.4
20260901060502 57 255 3.0 11.0 0.00 0.00 0.00 81 1014.4
20260901060023 57 253 3.0 11.0 0.00 0.00 0.00 81 1014.4
20260901055502 57 254 2.0 9.0 0.00 0.00 0.00 82 1014.4
20260901055023 57 247 2.0 7.0 0.00 0.00 0.00 82 1014.4
20260901054502 57 255 3.0 9.0 0.00 0.00 0.00 82 1014.4
20260901054023 57 259 3.0 9.0 0.00 0.00 0.00 82 1014.4
20260901053502 57 256 3.0 8.0 0.00 0.00 0.00 82 1012.5
20260901053002 57 257 4.0 9.0 0.00 0.00 0.00 82 1012.5
20260901052502 57 253 3.0 9.0 0.00 0.00 0.00 82 1012.5
20260901052002 57 252 3.0 11.0 0.00 0.00 0.00 82 1012.5
20260901051502 57 256 2.0 11.0 0.00 0.00 0.00 82 1012.5
20260901051002 57 257 3.0 11.0 0.00 0.00 0.00 82 1012.5
20260901050502 57 257 3.0 11.0 0.00 0.00 0.00 82 1012.5
20260901050002 57 252 3.0 11.0 0.00 0.00 0.00 82 1012.5
20260901045502 57 255 3.0 9.0 0.00 0.00 0.00 82 1012.5
20260901045002 57 258 3.0 9.0 0.00 0.00 0.00 82 1012.5
20260901044502 57 254 3.0 9.0 0.00 0.00 0.00 82 1012.5
20260901044002 57 252 3.0 9.0 0.00 0.00 0.00 82 1012.5
20260901043502 57 261 3.0 9.0 0.00 0.00 0.00 82 1012.5
20260901043023 57 259 3.0 8.0 0.00 0.00 0.00 82 1012.5
20260901042502 57 251 3.0 10.0 0.00 0.00 0.00 82 1012.5
20260901042002 57 252 4.0 10.0 0.00 0.00 0.00 82 1012.5
20260901041502 57 247 4.0 10.0 0.00 0.00 0.00 82 1012.5
20260901041002 57 246 4.0 13.0 0.00 0.00 0.00 82 1012.5
20260901040523 57 248 3.0 13.0 0.00 0.00 0.00 82 1012.5
20260901040002 57 257 3.0 12.0 0.00 0.00 0.00 82 1012.5
20260901035523 57 258 3.0 12.0 0.00 0.00 0.00 82 1012.5
20260901035002 57 253 2.0 8.0 0.00 0.00 0.00 82 1012.5
20260901034523 57 260 3.0 9.0 0.00 0.00 0.00 82 1012.5
20260901034002 57 260 4.0 10.0 0.00 0.00 0.00 82 1012.5
20260901033502 57 258 4.0 10.0 0.00 0.00 0.00 82 1012.5
20260901033002 57 267 3.0 9.0 0.00 0.00 0.00 82 1012.5
20260901032502 57 269 2.0 10.0 0.00 0.00 0.00 82 1012.5
20260901032023 57 267 2.0 10.0 0.00 0.00 0.00 82 1012.5
20260901031502 57 273 2.0 6.0 0.00 0.00 0.00 82 1012.5
20260901031002 57 277 2.0 6.0 0.00 0.00 0.00 82 1012.5
20260901030502 57 262 2.0 7.0 0.00 0.00 0.00 82 1012.5
20260901030002 57 252 3.0 9.0 0.00 0.00 0.00 81 1012.5
20260901025502 57 259 3.0 9.0 0.00 0.00 0.00 81 1012.5
20260901025002 58 262 3.0 10.0 0.00 0.00 0.00 81 1012.5
20260901024506 58 259 3.0 10.0 0.00 0.00 0.00 81 1012.5
20260901024023 58 259 3.0 9.0 0.00 0.00 0.00 81 1012.5
20260901023525 58 271 2.0 8.0 0.00 0.00 0.00 81 1012.5
20260901023002 58 271 3.0 10.0 0.00 0.00 0.00 82 1012.5
20260901022502 58 261 4.0 11.0 0.00 0.00 0.00 81 1012.5
20260901022002 59 262 4.0 12.0 0.00 0.00 0.00 81 1012.5
20260901021502 59 271 3.0 12.0 0.00 0.00 0.00 80 1012.5
20260901021002 59 268 3.0 10.0 0.00 0.00 0.00 80 1012.5
20260901020502 59 267 2.0 10.0 0.00 0.00 0.00 80 1012.5
20260901020002 59 265 2.0 7.0 0.00 0.00 0.00 80 1012.5
20260901015502 60 274 2.0 9.0 0.00 0.00 0.00 80 1012.5
20260901015002 60 277 3.0 9.0 0.00 0.00 0.00 79 1012.5
20260901014523 60 261 3.0 9.0 0.00 0.00 0.00 79 1012.5
20260901014002 60 271 3.0 9.0 0.00 0.00 0.00 79 1012.5
20260901013523 60 279 2.0 9.0 0.00 0.00 0.00 78 1012.5
20260901013002 61 269 2.0 8.0 0.00 0.00 0.00 78 1012.5
20260901012523 61 276 2.0 8.0 0.00 0.00 0.00 77 1012.5
20260901012002 61 266 3.0 11.0 0.00 0.00 0.00 78 1012.5
20260901011502 61 260 4.0 13.0 0.00 0.00 0.00 77 1012.5
20260901011023 62 264 4.0 13.0 0.00 0.00 0.00 76 1012.5
20260901010502 62 271 3.0 13.0 0.00 0.00 0.00 75 1012.5
20260901010002 63 277 2.0 8.0 0.00 0.00 0.00 76 1012.5
20260901005523 63 266 3.0 11.0 0.00 0.00 0.00 76 1012.5
20260901005002 63 259 5.0 11.0 0.00 0.00 0.00 75 1012.5
20260901004502 63 273 4.0 10.0 0.00 0.00 0.00 75 1012.5
20260901004003 63 294 3.0 10.0 0.00 0.00 0.00 75 1012.5
20260901003502 63 281 2.0 10.0 0.00 0.00 0.00 75 1012.5
20260901003023 63 279 2.0 10.0 0.00 0.00 0.00 76 1012.5
20260901002502 63 272 3.0 12.0 0.00 0.00 0.00 75 1012.5
20260901002002 63 273 3.0 12.0 0.00 0.00 0.00 75 1012.5
20260901001502 62 299 3.0 8.0 0.00 0.00 0.00 76 1012.5
20260901001023 62 280 4.0 11.0 0.00 0.00 0.00 75 1012.5
20260901000502 62 264 4.0 12.0 0.00 0.00 0.00 75 1012.5
20260901000002 63 275 4.0 12.0 0.00 0.00 0.00 75 1012.5
20260831235502 63 281 3.0 11.0 0.00 0.00 0.00 75 1012.5
20260831235002 63 281 2.0 8.0 0.00 0.00 0.00 74 1012.5
20260831234502 63 276 3.0 12.0 0.00 0.00 0.00 74 1012.5
20260831234023 64 278 4.0 16.0 0.00 0.00 0.00 74 1012.5
20260831233502 64 270 3.0 16.0 0.00 0.00 0.00 73 1012.5
20260831233002 64 257 4.0 11.0 0.00 0.00 0.00 74 1012.5
20260831232523 64 260 4.0 11.0 0.00 0.00 0.00 74 1012.5
20260831232002 64 268 4.0 12.0 0.00 0.00 0.00 74 1012.5
20260831231502 64 271 3.0 12.0 0.00 0.00 0.00 73 1012.5
20260831231002 64 260 3.0 10.0 0.00 0.00 0.00 73 1012.5
20260831230523 64 267 3.0 10.0 0.00 0.00 0.00 73 1012.5
20260831230002 64 298 2.0 10.0 0.00 0.00 0.00 74 1012.5
20260831225523 64 277 3.0 11.0 0.00 0.00 0.00 73 1012.5
20260831225002 64 256 4.0 13.0 0.00 0.00 0.00 74 1012.5
20260831224502 64 265 4.0 13.0 0.00 0.00 0.00 74 1012.5
20260831224002 64 269 4.0 13.0 0.00 0.00 0.00 73 1012.5
20260831223503 64 269 4.0 9.0 0.00 0.00 0.00 73 1012.5
20260831223002 64 268 4.0 11.0 0.00 0.00 0.00 74 1012.5
20260831222502 64 267 4.0 14.0 0.00 0.00 0.00 74 1012.5
20260831222003 64 279 3.0 14.0 0.00 0.00 0.00 75 1012.5
20260831221502 64 268 4.0 12.0 0.00 0.00 0.00 76 1012.5
20260831221002 64 262 3.0 12.0 0.00 0.00 0.00 76 1012.5
20260831220523 64 278 2.0 10.0 0.00 0.00 0.00 76 1012.5
20260831220002 64 264 3.0 9.0 0.00 0.00 0.00 77 1012.5
20260831215523 63 266 3.0 9.0 0.00 0.00 0.00 77 1012.5
20260831215002 63 273 2.0 10.0 0.00 0.00 0.00 79 1012.5
20260831214502 62 264 3.0 10.0 0.00 0.00 0.00 78 1012.5
20260831214002 62 264 3.0 10.0 0.00 0.00 0.00 80 1012.5
20260831213502 61 253 3.0 10.0 0.00 0.00 0.00 80 1012.5
20260831213002 61 257 3.0 12.0 0.00 0.00 0.00 80 1012.5
20260831212502 61 256 4.0 12.0 0.00 0.00 0.00 80 1012.5